Location: Caltech
(34.1382°N, 118.1253°W)
Time: 17:44:22
(UTC-07:00)

FENGYUN 3A - Visible Passes

Search period start: 24 April 2014 00:00
Search period end: 04 May 2014 00:00
Orbit: 820 x 834 km, 98.6° (Epoch: 24 April)

Date Brightness Start Highest point End Pass type
(mag) Time Alt. Az. Time Alt. Az. Time Alt. Az.
24 Apr 3.6 21:43:39 63° E 21:43:49 63° ENE 21:49:06 10° N visible
24 Apr 6.2 23:25:09 13° W 23:25:09 13° W 23:26:45 10° WNW visible
25 Apr 4.1 21:24:39 40° E 21:25:13 41° ENE 21:30:12 10° N visible
25 Apr 5.7 23:06:09 20° W 23:06:09 20° W 23:09:27 10° NW visible
26 Apr 4.6 21:05:38 26° E 21:06:40 28° ENE 21:11:08 10° NNE visible
26 Apr 5.1 22:47:09 31° W 22:47:09 31° W 22:51:27 10° NW visible
27 Apr 5.1 20:46:38 17° E 20:48:10 19° ENE 20:51:47 10° NNE visible
27 Apr 4.3 22:28:08 47° W 22:28:08 47° W 22:33:09 10° NNW visible
28 Apr 5.6 20:27:38 10° E 20:29:44 12° ENE 20:31:49 10° NE visible
28 Apr 3.6 22:09:08 73° WSW 22:09:16 73° WSW 22:14:38 10° NNW visible
29 Apr 3.5 21:50:08 69° ESE 21:50:36 74° ENE 21:55:57 10° N visible
29 Apr 6.3 23:31:38 10° W 23:31:38 10° W 23:32:19 10° W visible
30 Apr 3.9 21:31:08 44° ESE 21:31:59 49° ENE 21:37:08 10° N visible
30 Apr 5.8 23:12:38 17° W 23:12:38 17° W 23:15:52 10° NW visible
01 May 4.5 21:12:08 29° E 21:13:25 32° ENE 21:18:07 10° N visible
01 May 5.2 22:53:38 26° W 22:53:38 26° W 22:58:03 10° NW visible
02 May 5.0 20:53:08 19° E 20:54:54 22° ENE 20:58:54 10° NNE visible
02 May 4.6 22:34:38 40° WSW 22:34:49 40° W 22:39:50 10° NNW visible
03 May 5.4 20:34:08 11° E 20:36:26 15° ENE 20:39:16 10° NNE visible
03 May 3.8 22:15:38 59° SW 22:16:05 62° W 22:21:24 10° NNW visible
